• In Kazakhstan
  • List of Countries
  • For 7 days
  • Water Temperature
  • Satellite Maps
  • Weather Map
  • News
  • Weather Widgets
  • user-avatar
    Login

    Hourly Weather Bakersfield

    Today, 21 November, Tuesday

    Time Temperature Precipitation Wind Pressure Humidity
    00:00 +18°C° 0 mm 1 mps 753 mmHg 53%
    01:00 +18°C° 0 mm 1 mps 753 mmHg 53%
    02:00 +18°C° 0 mm 1 mps 753 mmHg 52%
    03:00 +18°C° 0 mm 1 mps 753 mmHg 51%
    04:00 +18°C° 0 mm 1 mps 753 mmHg 51%
    05:00 +18°C° 0 mm 1 mps 753 mmHg 51%
    06:00 +18°C° 0 mm 1 mps 754 mmHg 51%
    07:00 +18°C° 0 mm 1 mps 754 mmHg 51%
    08:00 +20°C° 0 mm 1 mps 754 mmHg 45%
    09:00 +23°C° 0 mm 1 mps 754 mmHg 38%
    10:00 +25°C° 0 mm 1 mps 755 mmHg 31%
    11:00 +26°C° 0 mm 1 mps 754 mmHg 29%
    12:00 +28°C° 0 mm 2 mps 754 mmHg 27%
    13:00 +29°C° 0 mm 2 mps 754 mmHg 25%
    14:00 +28°C° 0 mm 2 mps 754 mmHg 27%
    15:00 +28°C° 0 mm 1 mps 753 mmHg 29%
    16:00 +27°C° 0 mm 1 mps 753 mmHg 31%
    17:00 +25°C° 0 mm 1 mps 753 mmHg 33%
    18:00 +23°C° 0 mm 1 mps 754 mmHg 35%
    19:00 +22°C° 0 mm 1 mps 754 mmHg 36%
    20:00 +21°C° 0 mm 1 mps 754 mmHg 37%
    21:00 +21°C° 0 mm 1 mps 754 mmHg 38%
    22:00 +20°C° 0 mm 1 mps 754 mmHg 38%
    23:00 +20°C° 0 mm 1 mps 754 mmHg 39%

    Tomorrow, 22 November, Wednesday

    Time Temperature Precipitation Wind Pressure Humidity
    00:00 +20°C° 0 mm 1 mps 754 mmHg 40%
    01:00 +19°C° 0 mm 1 mps 754 mmHg 41%
    02:00 +19°C° 0 mm 1 mps 754 mmHg 43%
    03:00 +19°C° 0 mm 1 mps 754 mmHg 44%
    04:00 +19°C° 0 mm 1 mps 754 mmHg 45%
    05:00 +19°C° 0 mm 1 mps 754 mmHg 44%
    06:00 +19°C° 0 mm 1 mps 754 mmHg 42%
    07:00 +19°C° 0 mm 1 mps 754 mmHg 41%
    08:00 +22°C° 0 mm 1 mps 754 mmHg 35%
    09:00 +25°C° 0 mm 1 mps 755 mmHg 30%
    10:00 +28°C° 0 mm 1 mps 755 mmHg 24%
    11:00 +30°C° 0 mm 2 mps 754 mmHg 23%
    12:00 +31°C° 0 mm 2 mps 754 mmHg 22%
    13:00 +32°C° 0 mm 2 mps 753 mmHg 20%
    14:00 +31°C° 0 mm 2 mps 753 mmHg 24%
    15:00 +30°C° 0 mm 1 mps 753 mmHg 27%
    16:00 +29°C° 0 mm 1 mps 753 mmHg 30%
    17:00 +27°C° 0 mm 1 mps 753 mmHg 32%
    18:00 +25°C° 0 mm 1 mps 753 mmHg 34%
    19:00 +23°C° 0 mm 1 mps 754 mmHg 36%
    20:00 +23°C° 0 mm 1 mps 754 mmHg 37%
    21:00 +22°C° 0 mm 1 mps 754 mmHg 37%
    22:00 +22°C° 0 mm 1 mps 754 mmHg 38%
    23:00 +21°C° 0 mm 1 mps 754 mmHg 39%

    Day after tomorrow, 23 November, Thursday

    Time Temperature Precipitation Wind Pressure Humidity
    00:00 +21°C° 0 mm 1 mps 754 mmHg 40%
    01:00 +21°C° 0 mm 1 mps 754 mmHg 42%
    02:00 +20°C° 0 mm 1 mps 753 mmHg 45%
    03:00 +19°C° 0 mm 1 mps 753 mmHg 47%
    04:00 +19°C° 0 mm 1 mps 753 mmHg 50%
    05:00 +19°C° 0 mm 1 mps 753 mmHg 52%
    06:00 +18°C° 0 mm 1 mps 753 mmHg 54%
    07:00 +18°C° 0 mm 1 mps 753 mmHg 56%
    08:00 +21°C° 0 mm 1 mps 754 mmHg 48%
    09:00 +24°C° 0 mm 1 mps 754 mmHg 41%
    10:00 +26°C° 0 mm 1 mps 754 mmHg 34%
    11:00 +28°C° 0 mm 1 mps 753 mmHg 31%
    12:00 +29°C° 0 mm 2 mps 752 mmHg 28%
    13:00 +30°C° 0 mm 2 mps 752 mmHg 26%
    14:00 +29°C° 0 mm 2 mps 751 mmHg 29%
    15:00 +28°C° 0 mm 2 mps 751 mmHg 32%
    16:00 +27°C° 0 mm 2 mps 751 mmHg 35%
    17:00 +25°C° 0 mm 1 mps 751 mmHg 40%
    18:00 +23°C° 0 mm 1 mps 751 mmHg 45%
    19:00 +21°C° 0 mm 1 mps 752 mmHg 50%
    20:00 +20°C° 0 mm 1 mps 752 mmHg 51%
    21:00 +20°C° 0 mm 1 mps 752 mmHg 53%
    22:00 +19°C° 0 mm 1 mps 752 mmHg 54%
    23:00 +19°C° 0 mm 1 mps 752 mmHg 56%

    24 November, Friday

    Time Temperature Precipitation Wind Pressure Humidity
    00:00 +18°C° 0 mm 1 mps 751 mmHg 57%
    01:00 +16°C° 0 mm 0 mps 751 mmHg 59%
    02:00 +16°C° 0 mm 0 mps 751 mmHg 59%
    03:00 +18°C° 0 mm 1 mps 751 mmHg 60%
    04:00 +16°C° 0 mm 1 mps 750 mmHg 60%
    05:00 +16°C° 0 mm 1 mps 750 mmHg 59%
    06:00 +16°C° 0 mm 1 mps 750 mmHg 58%
    07:00 +18°C° 0 mm 1 mps 751 mmHg 56%
    08:00 +20°C° 0 mm 1 mps 751 mmHg 49%
    09:00 +23°C° 0 mm 1 mps 751 mmHg 41%
    10:00 +26°C° 0 mm 2 mps 751 mmHg 33%
    11:00 +27°C° 0 mm 2 mps 750 mmHg 32%
    12:00 +28°C° 0 mm 2 mps 750 mmHg 30%
    13:00 +29°C° 0 mm 2 mps 749 mmHg 28%
    14:00 +28°C° 0 mm 2 mps 749 mmHg 32%
    15:00 +27°C° 0 mm 1 mps 749 mmHg 35%
    16:00 +26°C° 0 mm 1 mps 749 mmHg 38%
    17:00 +25°C° 0 mm 1 mps 749 mmHg 40%
    18:00 +23°C° 0 mm 1 mps 749 mmHg 43%
    19:00 +21°C° 0 mm 1 mps 750 mmHg 45%
    20:00 +21°C° 0 mm 1 mps 750 mmHg 43%
    21:00 +21°C° 0 mm 1 mps 750 mmHg 41%
    22:00 +21°C° 0 mm 1 mps 750 mmHg 39%
    23:00 +20°C° 0 mm 1 mps 750 mmHg 38%

    25 November, Saturday

    Time Temperature Precipitation Wind Pressure Humidity
    00:00 +20°C° 0 mm 1 mps 750 mmHg 36%
    01:00 +20°C° 0 mm 1 mps 750 mmHg 35%
    02:00 +20°C° 0 mm 1 mps 750 mmHg 34%
    03:00 +20°C° 0 mm 1 mps 750 mmHg 33%
    04:00 +20°C° 0 mm 1 mps 750 mmHg 31%
    05:00 +20°C° 0 mm 1 mps 751 mmHg 30%
    06:00 +20°C° 0 mm 1 mps 751 mmHg 29%
    07:00 +20°C° 0 mm 1 mps 751 mmHg 28%
    08:00 +23°C° 0 mm 1 mps 751 mmHg 24%
    09:00 +27°C° 0 mm 1 mps 752 mmHg 21%
    10:00 +30°C° 0 mm 1 mps 752 mmHg 17%
    11:00 +30°C° 0 mm 1 mps 752 mmHg 17%
    12:00 +31°C° 0 mm 2 mps 751 mmHg 17%
    13:00 +33°C° 0 mm 3 mps 751 mmHg 17%
    14:00 +30°C° 0 mm 2 mps 751 mmHg 20%
    15:00 +29°C° 0 mm 2 mps 751 mmHg 23%
    16:00 +28°C° 0 mm 1 mps 751 mmHg 25%
    17:00 +27°C° 0 mm 1 mps 751 mmHg 26%
    18:00 +25°C° 0 mm 1 mps 752 mmHg 27%
    19:00 +24°C° 0 mm 2 mps 752 mmHg 28%
    20:00 +23°C° 0 mm 2 mps 752 mmHg 29%
    21:00 +23°C° 0 mm 2 mps 753 mmHg 30%
    22:00 +21°C° 0 mm 2 mps 753 mmHg 31%
    23:00 +21°C° 0 mm 1 mps 753 mmHg 33%

    26 November, Sunday

    Time Temperature Precipitation Wind Pressure Humidity
    00:00 +21°C° 0 mm 1 mps 753 mmHg 35%
    01:00 +20°C° 0 mm 1 mps 753 mmHg 37%
    02:00 +20°C° 0 mm 1 mps 753 mmHg 37%
    03:00 +20°C° 0 mm 1 mps 753 mmHg 38%
    04:00 +19°C° 0 mm 1 mps 753 mmHg 38%
    05:00 +19°C° 0 mm 1 mps 753 mmHg 37%
    06:00 +20°C° 0 mm 1 mps 753 mmHg 37%
    07:00 +20°C° 0 mm 1 mps 753 mmHg 36%
    08:00 +22°C° 0 mm 1 mps 753 mmHg 32%
    09:00 +24°C° 0 mm 1 mps 753 mmHg 28%
    10:00 +26°C° 0 mm 1 mps 753 mmHg 24%
    11:00 +27°C° 0 mm 1 mps 753 mmHg 23%
    12:00 +27°C° 0 mm 1 mps 752 mmHg 23%
    13:00 +28°C° 0 mm 2 mps 752 mmHg 22%
    14:00 +27°C° 0 mm 2 mps 752 mmHg 25%
    15:00 +27°C° 0 mm 2 mps 752 mmHg 27%
    16:00 +26°C° 0 mm 1 mps 752 mmHg 30%
    17:00 +24°C° 0 mm 1 mps 752 mmHg 35%
    18:00 +22°C° 0 mm 1 mps 752 mmHg 40%
    19:00 +19°C° 0 mm 2 mps 752 mmHg 45%
    20:00 +18°C° 0 mm 2 mps 753 mmHg 51%
    21:00 +18°C° 0 mm 2 mps 753 mmHg 57%
    22:00 +17°C° 0 mm 2 mps 753 mmHg 62%
    23:00 +16°C° 0 mm 2 mps 753 mmHg 70%
    Show more